Location: Fredericksburg
(30.2750°N, 98.8720°W)
Time: 10:15:45
(UTC-06:00)

ISS - All Passes

Search period start: 04 December 2016 00:00
Search period end: 14 December 2016 00:00
Orbit: 401 x 410 km, 51.6° (Epoch: 04 December)

Date Brightness Start Highest point End Pass type
(mag) Time Alt. Az. Time Alt. Az. Time Alt. Az.
04 Dec - 00:47:05 10° NNW 00:50:17 47° NE 00:53:28 10° ESE night (unlit)
04 Dec - 15:47:09 10° S 15:49:47 23° SE 15:52:26 10° ENE daylight
04 Dec - 17:23:33 10° W 17:26:12 22° NW 17:28:51 10° NNE daylight
04 Dec - 23:55:32 10° NNW 23:58:15 23° NE 00:00:58 10° E night (unlit)
05 Dec - 01:32:03 10° WNW 01:34:39 21° SW 01:37:14 10° S night (unlit)
05 Dec - 14:57:28 10° SE 14:58:01 10° SE 14:58:35 10° ESE daylight
05 Dec - 16:31:01 10° WSW 16:34:10 44° NW 16:37:20 10° NNE daylight
05 Dec - 23:04:27 10° N 23:06:07 13° NE 23:07:46 10° ENE night (unlit)
06 Dec - 00:39:37 10° NW 00:42:49 49° SW 00:46:01 10° SSE night (unlit)
06 Dec - 15:38:57 10° SW 15:42:12 76° SE 15:45:29 10° NE daylight
06 Dec - 17:18:51 10° NW 17:19:03 10° NNW 17:19:16 10° NNW daylight
06 Dec - 23:47:37 10° NW 23:50:53 67° NE 23:54:09 10° SE night (unlit)
07 Dec - 14:47:23 10° SSW 14:50:19 31° SE 14:53:15 10° ENE daylight
07 Dec - 16:24:33 10° W 16:26:50 18° NW 16:29:09 10° N daylight
07 Dec - 22:55:54 10° NNW 22:58:52 30° NE 23:01:49 10° ESE night (unlit)
08 Dec - 00:33:02 10° W 00:35:10 16° SW 00:37:15 10° SSW night (unlit)
08 Dec - 13:56:41 10° SSE 13:58:30 14° SE 14:00:18 10° E daylight
08 Dec - 15:31:44 10° WSW 15:34:44 33° NW 15:37:44 10° NNE daylight
08 Dec - 22:04:34 10° N 22:06:44 16° NE 22:08:55 10° ENE night (unlit)
08 Dec - 23:40:16 10° WNW 23:43:19 35° SW 23:46:21 10° SSE night (unlit)
09 Dec - 14:39:27 10° SW 14:42:42 76° NW 14:45:58 10° NE daylight
09 Dec - 22:48:05 10° NW 22:51:23 87° SW 22:54:40 10° SE night (unlit)
10 Dec - 13:47:39 10° SSW 13:50:45 43° SE 13:53:52 10° ENE daylight
10 Dec - 15:25:33 10° WNW 15:27:23 14° NW 15:29:14 10° N daylight
10 Dec - 21:56:13 10° NNW 21:59:21 39° NE 22:02:28 10° ESE night (unlit)
10 Dec - 23:34:15 10° WSW 23:35:32 12° SW 23:36:50 10° SSW night (unlit)
11 Dec - 12:56:29 10° S 12:58:51 19° SE 13:01:15 10° E daylight
11 Dec - 14:32:25 10° W 14:35:12 25° NW 14:37:59 10° NNE daylight
11 Dec - 21:04:41 10° NNW 21:07:13 20° NE 21:09:46 10° E night (unlit)
11 Dec - 22:40:53 10° WNW 22:43:41 26° SW 22:46:28 10° S night (unlit)
12 Dec - 13:39:54 10° WSW 13:43:06 54° NW 13:46:19 10° NE daylight
12 Dec - 20:13:46 10° NNE 20:14:58 12° NNE 20:16:11 10° NE night (unlit)
12 Dec - 21:48:29 10° NW 21:51:45 61° SW 21:54:59 10° SSE night (unlit)
13 Dec - 12:47:53 10° SSW 12:51:04 61° SE 12:54:18 10° NE daylight
13 Dec - 14:26:42 10° NW 14:27:50 11° NNW 14:28:59 10° NNW daylight
13 Dec - 20:56:29 10° NW 20:59:42 54° NE 21:02:56 10° ESE night (unlit)
